When you browse on this site, cookies collect data to enhance your experience and personalize the content and advertising you see.
Visit our Privacy Policy to learn more. By continuing to use the site, you agree to this use of cookies and data.
  • En España
  • Lista de países
  • Para 7 días
  • Temperatura del agua
  • El tiempo en el mapa
  • Informadores
  • user-avatar
    Iniciar sesión

    Tiempo cada hora Labé

    Hoy, 21 Febrero, Viernes

    Tiempo Temperatura Precipitaciones Viento Presión Humedad
    00:00 +21°C° 0 mm 1 mps 670 mmHg 35%
    01:00 +21°C° 0 mm 1 mps 670 mmHg 39%
    02:00 +20°C° 0 mm 1 mps 670 mmHg 43%
    03:00 +18°C° 0 mm 0 mps 670 mmHg 43%
    04:00 +17°C° 0 mm 0 mps 669 mmHg 42%
    05:00 +17°C° 0 mm 0 mps 669 mmHg 41%
    12:00 +38°C° 0 mm 2 mps 673 mmHg 12%
    13:00 +39°C° 0 mm 1 mps 673 mmHg 12%
    14:00 +39°C° 0 mm 1 mps 672 mmHg 12%
    15:00 +37°C° 0 mm 1 mps 672 mmHg 13%
    16:00 +36°C° 0 mm 1 mps 671 mmHg 15%
    17:00 +34°C° 0 mm 1 mps 671 mmHg 17%
    18:00 +31°C° 0 mm 1 mps 671 mmHg 21%
    19:00 +28°C° 0 mm 1 mps 671 mmHg 25%
    20:00 +25°C° 0 mm 1 mps 671 mmHg 29%
    21:00 +25°C° 0 mm 1 mps 671 mmHg 33%
    22:00 +24°C° 0 mm 1 mps 671 mmHg 36%
    23:00 +23°C° 0 mm 1 mps 671 mmHg 39%

    Mañana, 22 Febrero, Sábado

    Tiempo Temperatura Precipitaciones Viento Presión Humedad
    00:00 +22°C° 0 mm 1 mps 671 mmHg 43%
    01:00 +22°C° 0 mm 1 mps 671 mmHg 46%
    02:00 +21°C° 0 mm 1 mps 670 mmHg 49%
    03:00 +21°C° 0 mm 1 mps 670 mmHg 51%
    04:00 +21°C° 0 mm 1 mps 670 mmHg 53%
    05:00 +20°C° 0 mm 1 mps 670 mmHg 55%
    06:00 +22°C° 0 mm 1 mps 671 mmHg 48%
    07:00 +25°C° 0 mm 1 mps 672 mmHg 42%
    08:00 +27°C° 0 mm 1 mps 673 mmHg 36%
    09:00 +30°C° 0 mm 1 mps 674 mmHg 29%
    10:00 +33°C° 0 mm 1 mps 674 mmHg 22%
    11:00 +36°C° 0 mm 1 mps 675 mmHg 15%
    12:00 +37°C° 0 mm 1 mps 674 mmHg 14%
    13:00 +37°C° 0 mm 1 mps 673 mmHg 14%
    14:00 +39°C° 0 mm 2 mps 673 mmHg 14%
    15:00 +37°C° 0 mm 1 mps 672 mmHg 15%
    16:00 +35°C° 0 mm 1 mps 672 mmHg 17%
    17:00 +34°C° 0 mm 1 mps 671 mmHg 18%
    18:00 +31°C° 0 mm 1 mps 671 mmHg 21%
    19:00 +29°C° 0 mm 1 mps 671 mmHg 24%
    20:00 +26°C° 0 mm 1 mps 672 mmHg 27%
    21:00 +25°C° 0 mm 1 mps 672 mmHg 30%
    22:00 +24°C° 0 mm 1 mps 672 mmHg 32%
    23:00 +23°C° 0 mm 1 mps 672 mmHg 35%

    Pasado mañana, 23 Febrero, Domingo

    Tiempo Temperatura Precipitaciones Viento Presión Humedad
    00:00 +22°C° 0 mm 1 mps 672 mmHg 39%
    01:00 +22°C° 0 mm 1 mps 672 mmHg 43%
    02:00 +21°C° 0 mm 1 mps 671 mmHg 47%
    03:00 +21°C° 0 mm 1 mps 671 mmHg 51%
    04:00 +21°C° 0 mm 1 mps 671 mmHg 55%
    05:00 +20°C° 0 mm 1 mps 671 mmHg 59%
    06:00 +22°C° 0 mm 1 mps 672 mmHg 53%
    07:00 +24°C° 0 mm 1 mps 673 mmHg 47%
    08:00 +25°C° 0 mm 0 mps 674 mmHg 41%
    09:00 +29°C° 0 mm 1 mps 675 mmHg 34%
    10:00 +32°C° 0 mm 1 mps 675 mmHg 27%
    11:00 +34°C° 0 mm 1 mps 675 mmHg 20%
    12:00 +35°C° 0 mm 1 mps 674 mmHg 19%
    13:00 +36°C° 0 mm 2 mps 674 mmHg 18%
    14:00 +37°C° 0 mm 2 mps 673 mmHg 18%
    15:00 +35°C° 0 mm 2 mps 673 mmHg 20%
    16:00 +32°C° 0 mm 1 mps 672 mmHg 23%
    17:00 +31°C° 0 mm 1 mps 672 mmHg 26%
    18:00 +30°C° 0 mm 1 mps 672 mmHg 25%
    19:00 +29°C° 0 mm 1 mps 673 mmHg 25%
    20:00 +27°C° 0 mm 1 mps 673 mmHg 25%
    21:00 +26°C° 0 mm 1 mps 673 mmHg 27%
    22:00 +25°C° 0 mm 1 mps 673 mmHg 28%
    23:00 +24°C° 0 mm 1 mps 673 mmHg 29%

    24 Febrero, Lunes

    Tiempo Temperatura Precipitaciones Viento Presión Humedad
    00:00 +24°C° 0 mm 1 mps 673 mmHg 29%
    01:00 +24°C° 0 mm 1 mps 672 mmHg 28%
    02:00 +23°C° 0 mm 1 mps 672 mmHg 28%
    03:00 +23°C° 0 mm 1 mps 672 mmHg 28%
    04:00 +22°C° 0 mm 1 mps 672 mmHg 29%
    05:00 +20°C° 0 mm 2 mps 672 mmHg 29%
    06:00 +23°C° 0 mm 2 mps 673 mmHg 25%
    07:00 +25°C° 0 mm 3 mps 673 mmHg 22%
    08:00 +27°C° 0 mm 4 mps 674 mmHg 18%
    09:00 +29°C° 0 mm 4 mps 674 mmHg 16%
    10:00 +32°C° 0 mm 4 mps 674 mmHg 14%
    11:00 +34°C° 0 mm 4 mps 674 mmHg 13%
    12:00 +35°C° 0 mm 4 mps 674 mmHg 12%
    13:00 +36°C° 0 mm 4 mps 673 mmHg 11%
    14:00 +37°C° 0 mm 3 mps 672 mmHg 10%
    15:00 +36°C° 0 mm 3 mps 672 mmHg 11%
    16:00 +36°C° 0 mm 2 mps 672 mmHg 11%
    17:00 +35°C° 0 mm 2 mps 672 mmHg 11%
    18:00 +31°C° 0 mm 2 mps 671 mmHg 14%
    19:00 +28°C° 0 mm 1 mps 671 mmHg 16%
    20:00 +25°C° 0 mm 1 mps 671 mmHg 18%
    21:00 +24°C° 0 mm 1 mps 671 mmHg 18%
    22:00 +24°C° 0 mm 1 mps 671 mmHg 19%
    23:00 +24°C° 0 mm 1 mps 671 mmHg 19%

    25 Febrero, Martes

    Tiempo Temperatura Precipitaciones Viento Presión Humedad
    00:00 +23°C° 0 mm 1 mps 671 mmHg 18%
    01:00 +23°C° 0 mm 2 mps 671 mmHg 17%
    02:00 +23°C° 0 mm 2 mps 670 mmHg 16%
    03:00 +20°C° 0 mm 2 mps 670 mmHg 17%
    04:00 +19°C° 0 mm 2 mps 670 mmHg 19%
    05:00 +19°C° 0 mm 1 mps 670 mmHg 20%
    06:00 +20°C° 0 mm 2 mps 671 mmHg 18%
    07:00 +22°C° 0 mm 3 mps 672 mmHg 16%
    08:00 +25°C° 0 mm 4 mps 673 mmHg 14%
    09:00 +28°C° 0 mm 5 mps 673 mmHg 13%
    10:00 +30°C° 0 mm 6 mps 673 mmHg 11%
    11:00 +33°C° 0 mm 7 mps 674 mmHg 10%
    12:00 +34°C° 0 mm 7 mps 673 mmHg 9%
    13:00 +35°C° 0 mm 6 mps 672 mmHg 9%
    14:00 +36°C° 0 mm 5 mps 672 mmHg 8%
    15:00 +35°C° 0 mm 4 mps 672 mmHg 9%
    16:00 +35°C° 0 mm 4 mps 671 mmHg 9%
    17:00 +34°C° 0 mm 3 mps 671 mmHg 10%
    18:00 +30°C° 0 mm 2 mps 671 mmHg 12%
    19:00 +27°C° 0 mm 2 mps 671 mmHg 14%
    20:00 +24°C° 0 mm 1 mps 671 mmHg 16%
    21:00 +23°C° 0 mm 1 mps 671 mmHg 16%
    22:00 +23°C° 0 mm 1 mps 671 mmHg 17%
    23:00 +22°C° 0 mm 1 mps 671 mmHg 17%

    26 Febrero, Miércoles

    Tiempo Temperatura Precipitaciones Viento Presión Humedad
    00:00 +20°C° 0 mm 0 mps 671 mmHg 17%
    01:00 +20°C° 0 mm 0 mps 670 mmHg 17%
    02:00 +19°C° 0 mm 0 mps 670 mmHg 18%
    03:00 +21°C° 0 mm 1 mps 670 mmHg 18%
    04:00 +21°C° 0 mm 1 mps 670 mmHg 18%
    05:00 +20°C° 0 mm 1 mps 670 mmHg 19%
    06:00 +22°C° 0 mm 1 mps 671 mmHg 17%
    07:00 +25°C° 0 mm 2 mps 672 mmHg 15%
    08:00 +27°C° 0 mm 3 mps 673 mmHg 12%
    09:00 +29°C° 0 mm 3 mps 674 mmHg 11%
    10:00 +32°C° 0 mm 4 mps 674 mmHg 10%
    11:00 +34°C° 0 mm 4 mps 674 mmHg 8%
    12:00 +35°C° 0 mm 3 mps 673 mmHg 8%
    13:00 +36°C° 0 mm 3 mps 673 mmHg 8%
    14:00 +37°C° 0 mm 2 mps 672 mmHg 7%
    15:00 +36°C° 0 mm 2 mps 672 mmHg 8%
    16:00 +36°C° 0 mm 2 mps 671 mmHg 8%
    17:00 +35°C° 0 mm 2 mps 671 mmHg 9%
    18:00 +31°C° 0 mm 2 mps 671 mmHg 11%
    19:00 +27°C° 0 mm 1 mps 671 mmHg 13%
    20:00 +24°C° 0 mm 1 mps 671 mmHg 15%
    21:00 +23°C° 0 mm 1 mps 671 mmHg 16%
    22:00 +20°C° 0 mm 0 mps 671 mmHg 16%
    23:00 +19°C° 0 mm 0 mps 671 mmHg 17%
    Mostrar más